Tracking 25534 objects as of 29-Jan-2022
HD Live streaming from Space Station
objects crossing your sky now

THOR ABLESTAR DEB

Track THOR ABLESTAR DEB now!
10-day predictions


NORAD ID: 548
Int'l Code: 1961-015GH
Perigee: 597.2 km
Apogee: 771.6 km
Inclination: 66.7 °
Period: 98.3 minutes
Semi major axis: 7055 km
RCS: 0.028 m2 (small)
Launch date: June 29, 1961
Source: United States (US)
Launch site: AIR FORCE EASTERN TEST RANGE (AFETR)

Note: This is SATELLITE DEBRIS
aabbcc
Your satellite tracking list
Your tracking list is empty




NASA's NSSDC Master Catalog

Two Line Element Set (TLE):
1 00548U 61015GH  22028.56921689  .00000606  00000-0  12107-3 0  9996
2 00548  66.6750  95.7820 0123607 262.2837  96.4229 14.64936721168605
Source of the keplerian elements: AFSPC